Location: Newark
(41.8083°N, 72.2500°W)
Time: 20:50:41
(UTC+00:00)

Courier 1B - Pass Details

Date: 04 December 2021
Orbit: 962 x 1209 km, 28.3° (Epoch: 19 January)

Event Time Altitude Azimuth Distance (km) Brightness Sun altitude
Rises 20:48:09 0° 225° (SW) 4,062 13.0 3.9°
Reaches altitude 10° 20:51:47 10° 210° (SSW) 3,070 11.5 3.4°
Maximum altitude 20:57:09 21° 165° (SSE) 2,296 9.7 2.5°
Drops below altitude 10° 21:02:20 10° 119° (ESE) 2,952 9.8 1.7°
Sets 21:05:45 0° 104° (ESE) 3,863 10.2 1.2°
